This is the latest recevied weather packets stored in our database for station/object KG4YZY-1. If no packets are shown the sender has not sent any weather packets the latest 10 day(s).
| Time | Temp. | Humidity | Pressure | Rain* | Wind** | Luminosity | Snow |
|---|---|---|---|---|---|---|---|
| 1788115504 | 31.11° C | 72% | 1018.1 hPa | 0 mm | - | - | - |
| 1788115203 | 31.11° C | 71% | 1018.1 hPa | 0 mm | - | - | - |
| 1788114904 | 31.67° C | 71% | 1018.1 hPa | 0 mm | - | - | - |
| 1788114604 | 31.67° C | 70% | 1018.2 hPa | 0 mm | - | - | - |
| 1788114303 | 31.67° C | 70% | 1018.3 hPa | 0 mm | - | - | - |
| 1788114003 | 31.67° C | 69% | 1018.3 hPa | 0 mm | - | - | - |
| 1788113703 | 32.22° C | 68% | 1018.3 hPa | 0 mm | - | - | - |
| 1788113403 | 32.78° C | 67% | 1018.4 hPa | 0 mm | - | - | - |
| 1788113104 | 33.33° C | 65% | 1018.5 hPa | 0 mm | - | - | - |
| 1788112804 | 34.44° C | 62% | 1018.6 hPa | 0 mm | - | - | - |
| 1788112504 | 35.56° C | 61% | 1018.5 hPa | 0 mm | - | - | - |
| 1788112204 | 35° C | 55% | 1018.5 hPa | 0 mm | - | - | - |
| 1788111903 | 35° C | 57% | 1018.7 hPa | 0 mm | - | - | - |
| 1788111603 | 35° C | 59% | 1018.7 hPa | 0 mm | - | - | - |
| 1788111304 | 34.44° C | 61% | 1018.7 hPa | 0 mm | - | - | - |
| 1788111003 | 33.89° C | 60% | 1018.8 hPa | 0 mm | - | - | - |
| 1788110703 | 33.89° C | 61% | 1018.9 hPa | 0 mm | - | - | - |
| 1788110403 | 33.33° C | 62% | 1018.9 hPa | 0 mm | - | - | - |
| 1788110104 | 33.33° C | 66% | 1019 hPa | 0 mm | - | - | - |
| 1788109804 | 33.33° C | 64% | 1019.2 hPa | 0 mm | - | - | - |
| 1788109504 | 33.33° C | 65% | 1019.2 hPa | 0 mm | - | - | - |
| 1788109203 | 33.33° C | 65% | 1019.2 hPa | 0 mm | - | - | - |
| 1788108904 | 32.78° C | 66% | 1019.2 hPa | 0 mm | - | - | - |
| 1788108604 | 32.78° C | 68% | 1019.3 hPa | 0 mm | - | - | - |
| 1788108303 | 32.22° C | 68% | 1019.3 hPa | 0 mm | - | - | - |
* Rain latest hour (hover to see other rain measurements)
** Current wind speed in m/s (hover to see current wind gust speed)